Location: St. Louis
(38.6270°N, 90.1994°W)
Time: 23:27:42
(UTC-05:00)

RS-15 - Pass Details

Date: 28 January 2022
Orbit: 1886 x 2159 km, 64.8° (Epoch: 07 June)

Event Time Altitude Azimuth Distance (km) Brightness Sun altitude
Rises 17:23:05 0° 207° (SSW) 5,352 11.2 -1.7°
Reaches altitude 10° 17:26:17 10° 207° (SSW) 4,386 10.7 -2.3°
Maximum altitude 17:37:42 89° 119° (ESE) 2,052 8.2 -4.4°
Drops below altitude 10° 17:49:48 10° 32° (NNE) 4,623 9.5 -6.6°
Sets 17:53:17 0° 33° (NNE) 5,651 10.0 -7.3°
